Regional Weather Roundup
Issued by NWS

Home | Current Version | Previous Version | Graphics & Text | Print | Product List | Glossary On
Versions: 1 2 3 4 5 6 7 8 9 10 11 12 13 14 15 16 17 18 19 20 21 22 23 24 25 26 27 28 29 30 31 32 33 34 35 36 37 38 39 40 41 42 43 44 45 46 47 48 49 50
000
ASUS43 KFSD 310102
RWRSD

WEATHER ROUNDUP FOR SOUTH DAKOTA
NATIONAL WEATHER SERVICE SIOUX FALLS SD
800 PM CDT TUE AUG 30 2016

NOTE: "FAIR" INDICATES FEW OR NO CLOUDS BELOW 12,000 FEET WITH NO
SIGNIFICANT WEATHER AND/OR OBSTRUCTIONS TO VISIBILITY.


SDZ001>005-009-010-012>017-310200-
NORTHWEST AND NORTH CENTRAL SOUTH DAKOTA

CITY           SKY/WX    TMP DP  RH WIND       PRES   REMARKS
BUFFALO          N/A     81  58  45 SE13      30.08R
MOBRIDGE       PTCLDY    80  57  45 SE13      30.14R
$$

SDZ012>016-024>037-041>051-057-063-072>074-310200-
SOUTHWEST AND SOUTH CENTRAL SOUTH DAKOTA

CITY           SKY/WX    TMP DP  RH WIND       PRES   REMARKS
RAPID CTY ARPT CLOUDY    77  61  57 E7        30.17S
PIERRE         CLOUDY    76  55  48 SE13      30.14S
CUSTER         CLOUDY    73  52  47 E6        30.32F
ELLSWORTH AFB  CLEAR     77  63  61 CALM      30.16F
PHILIP         CLEAR     81  64  56 E10       30.14R
PINE RIDGE     CLEAR     80  57  45 E7        30.18S
WINNER         FAIR      82  65  56 E9        30.16S
$$

SDZ004>011-016>023-039-040-310200-
NORTHEAST SOUTH DAKOTA

CITY           SKY/WX    TMP DP  RH WIND       PRES   REMARKS
ABERDEEN       CLOUDY    74  57  55 E7        30.18R
WATERTOWN      CLOUDY    72  58  61 E5        30.20S
SISSETON         N/A     70  61  73 NE5       30.18R
$$

SDZ017-020-022-023-036>040-048>070-310200-
SOUTHEAST SOUTH DAKOTA

CITY           SKY/WX    TMP DP  RH WIND       PRES   REMARKS
SIOUX FALLS    PTCLDY    75  67  76 E6        30.17R
HURON          CLOUDY    76  66  71 E6        30.16S
CHAMBERLAIN    CLEAR     81  63  54 N3        30.16R
MITCHELL       CLEAR     77  72  84 E7        30.15S
YANKTON        PTCLDY    79  64  61 NE3       30.15R
$$

ABBREVIATIONS USED IN REMARKS
   TC - TEMPERATURE IN CELSIUS
  WCI - WIND CHILL INDEX
   HX - HEAT INDEX
  VSB - VISIBILITY





USA.gov is the U.S. government's official web portal to all federal, state and local government web resources and services.